Retour au catalogue

SUPERBIRD A1

ActifCommunicationsGEO
NORAD 22253·PAYLOAD·🇯🇵 Japan

Lancé Dec 1, 1992 depuis Guiana Space Centre

Loading…

TLE

FraisSource: Space-Track

Époque: Sep 14, 2026, 10:37 UTC

1 22253U 92084A   26257.44276153  .00000024  00000-0  00000-0 0  9997
2 22253  12.6889  21.7957 0014496 180.8833 199.9061  0.99116427122702

Suivez SUPERBIRD A1 en temps réel avec AllMySat

Download on the App Store